[[{"header":{"parameterUnit":"m.s-1","parameterCategory":2,"la1":30.2991,"la2":30.254,"lo1":-89.0895,"lo2":-89.0444,"dy":0.0017,"dx":0.0017,"nx":28,"ny":28,"refTime":"2024-07-04T09:00:00:Z","depth":"0","parameterNumber":2,"parameterNumberName":"U-component_of_CURRENTS"},"data":[0,0,0,0,0,0,0,0,0,0,0,0,0,0,0,0,0,0,0,0,0,0,0,0,0,0,0,0,0,0,0,0,0,0,0,0,0,0,0,0,0,0,0,0,0,0,0,0,0,0,0,0,0,0,0,0,0,0,0.4179,0.418,0,0.4296,0.4297,0.4298,0.4319,0.4319,0.4318,0.4317,0.4381,0.4383,0.4386,0,0,0,0,0,0,0,0,0,0,0,0,0,0.4039,0.404,0.4178,0.418,0.4182,0.4296,0.4297,0.4299,0.4319,0.4319,0.4318,0.4317,0.438,0.4383,0.4386,0,0,0,0,0,0,0,0,0,0,0,0,0,0.4119,0.4041,0.4178,0.4208,0.4212,0.4296,0.4297,0.4299,0.432,0.4318,0.4317,0.4316,0.438,0.4383,0.4386,0.4429,0,0,0.4397,0.4399,0,0,0,0,0,0,0,0,0.4114,0.4124,0.4202,0.4206,0.4211,0.4295,0.4272,0.4341,0.432,0.4276,0.4317,0.4316,0.435,0.4356,0.4377,0.4432,0.4435,0.4397,0.44,0.4401,0.4402,0,0,0,0,0,0,0,0.4109,0.4119,0.4222,0.4204,0.421,0.4239,0.4249,0.4285,0.4314,0.4279,0.4282,0.43,0.4352,0.4373,0.4378,0.4436,0.4397,0.4401,0.4403,0.4404,0.459,0.4593,0,0,0,0,0,0,0.4098,0.4114,0.4218,0.4226,0.4163,0.4243,0.4253,0.4266,0.4315,0.4322,0.4301,0.4301,0.4368,0.4374,0.4381,0.4509,0.4401,0.4404,0.4406,0.4588,0.4591,0.4594,0,0,0,0,0,0,0.4095,0.4106,0.4213,0.4175,0.4191,0.4246,0.4261,0.4269,0.4294,0.4332,0.4338,0.4318,0.4367,0.4376,0.4433,0.4508,0.4406,0.4409,0.4584,0.4589,0.4593,0.4717,0,0,0,0,0,0,0.409,0.4104,0.4115,0.4174,0.4193,0.4285,0.4263,0.4273,0.4308,0.4309,0.4349,0.4354,0.4367,0.4428,0.4437,0.4511,0.4412,0.4581,0.4586,0.4591,0.471,0.4725,0.4739,0,0,0,0,0,0.4085,0.4121,0.4114,0.4128,0.4204,0.4288,0.4301,0.4334,0.431,0.4345,0.4365,0.4352,0.4468,0.4433,0.4443,0.452,0.4578,0.4585,0.4591,0.4703,0.4722,0.4738,0,0,0,0,0,0,0.408,0.4129,0.4122,0.4173,0.4229,0.4293,0.4336,0.4337,0.438,0.438,0.4385,0.4394,0.4492,0.4475,0.4435,0.4588,0.4523,0.4532,0.4605,0.4624,0.4638,0.4666,0.4415,0,0,0,0,0,0.4079,0.4109,0.4164,0.4206,0.4236,0.4277,0.4312,0.4337,0.4381,0.4398,0.442,0.4454,0.4528,0.4544,0.4606,0.4666,0.4689,0.4722,0.4737,0.4749,0.4779,0.49,0.4929,0.4615,0.4615,0.4615,0,0,0.4087,0.4121,0.4137,0.4206,0.425,0.433,0.4297,0.437,0.4433,0.44,0.4484,0.4521,0.4562,0.4662,0.4699,0.4648,0.4843,0.4757,0.4768,0.4792,0.491,0.4941,0.4968,0.4619,0.4619,0.4618,0,0,0.4135,0.4154,0.4195,0.4253,0.4328,0.4375,0.4393,0.446,0.4486,0.4567,0.4581,0.4655,0.472,0.4786,0.4822,0.4945,0.4938,0.4951,0.5028,0.5145,0.5172,0.5197,0.5233,0.526,0.4932,0.4932,0.4932,0,0.4145,0.421,0.4227,0.4298,0.4375,0.4396,0.4492,0.4531,0.4604,0.4644,0.4612,0.4776,0.4799,0.4949,0.4992,0.4987,0.5016,0.4957,0.5167,0.5191,0.5215,0.5246,0.5274,0.4939,0.4938,0.4937,0.4937,0,0.4226,0.4292,0.4338,0.4434,0.4513,0.4609,0.4677,0.4731,0.4757,0.4797,0.4932,0.4974,0.5064,0.509,0.5079,0.5256,0.5211,0.5194,0.5124,0.5254,0.5278,0.5305,0.4949,0.4946,0.4944,0.4943,0,0,0.4225,0.4366,0.4382,0.4463,0.4605,0.4684,0.4798,0.4921,0.4984,0.505,0.5165,0.5281,0.5278,0.532,0.5323,0.5406,0.5575,0.5361,0.5363,0.54,0.5788,0.5569,0.5576,0.5597,0.5603,0.5608,0.5727,0,0.4295,0.4448,0.4512,0.4692,0.4797,0.4878,0.4988,0.5091,0.5146,0.5248,0.5315,0.5424,0.537,0.5417,0.5505,0.5588,0.5658,0.5542,0.5655,0.5657,0.5452,0.5606,0.5305,0.5372,0.5753,0.5758,0.5761,0,0.4357,0.4464,0.4642,0.4841,0.4893,0.5002,0.5188,0.5282,0.541,0.5452,0.5554,0.5582,0.5738,0.5659,0.5858,0.5785,0.5802,0.5833,0.5838,0.5616,0.5491,0.5311,0.5406,0.5331,0.5802,0.5799,0.5796,0,0.4369,0.4562,0.4715,0.4788,0.5001,0.5097,0.5211,0.5345,0.543,0.5578,0.5646,0.5802,0.5896,0.5988,0.6006,0.5964,0.6194,0.6141,0.5953,0.5934,0.5692,0.5641,0.5732,0.6287,0.6287,0.6286,0.6286,0,0.4449,0.4573,0.4725,0.482,0.5005,0.5132,0.5304,0.5409,0.5557,0.5648,0.5743,0.5831,0.5991,0.6092,0.6101,0.6102,0.627,0.6009,0.5982,0.5716,0.5669,0.5597,0.5561,0.6291,0.629,0.6289,0.6288,0,0.4479,0.4574,0.4756,0.496,0.5022,0.5158,0.5366,0.5462,0.5587,0.5712,0.5769,0.5939,0.6043,0.6124,0.628,0.6197,0.6054,0.6173,0.5801,0.5726,0.5419,0.5399,0.5247,0.5109,0.6005,0.6001,0.5997,0,0.4503,0.4595,0.482,0.4922,0.5031,0.5208,0.5318,0.5477,0.5556,0.5724,0.5788,0.5932,0.5952,0.6088,0.5999,0.5975,0.5892,0.5686,0.555,0.5397,0.536,0.5187,0.5073,0.5277,0.5267,0.526,0.5254,0,0.4575,0.4653,0.4826,0.498,0.512,0.5233,0.538,0.5427,0.5557,0.5615,0.5654,0.5681,0.5749,0.559,0.5574,0.5524,0.5405,0.5523,0.5512,0.4924,0.4603,0.4455,0.5168,0.5187,0.5193,0.5198,0.5202,0.5205,0.4621,0.4732,0.4904,0.5055,0.517,0.5176,0.5141,0.5237,0.5256,0.5177,0.539,0.5259,0.526,0.516,0.5089,0.4827,0.4882,0.469,0.4717,0.4589,0.4329,0.4842,0.4729,0.4733,0.4736,0.4739,0.4742,0,0.4626,0.476,0.4933,0.5038,0.5033,0.51,0.5101,0.4944,0.4787,0.4827,0.4758,0.4645,0.4488,0.4471,0.4286,0.4105,0.3925,0.4029,0.3792,0.3754,0.4354,0.4196,0.3782,0.3782,0.3782,0.3782,0.3782,0.3782,0.4649,0.4786,0.4861,0.4834,0.4835,0.4616,0.45,0.4314,0.4237,0.3974,0.3843,0.3897,0.409,0.4021,0.382,0.3707,0.3525,0.3249,0.3384,0.3892,0.3958,0.4021,0.3871,0.3395,0.3394,0.2581,0.2575,0.2571]},{"header":{"parameterUnit":"m.s-1","parameterCategory":2,"la1":30.2991,"la2":30.254,"lo1":-89.0895,"lo2":-89.0444,"dy":0.0017,"dx":0.0017,"nx":28,"ny":28,"refTime":"2024-07-04T09:00:00:Z","depth":"0","parameterNumber":3,"parameterNumberName":"V-component_of_CURRENTS"},"data":[0,0,0,0,0,0,0,0,0,0,0,0,0,0,0,0,0,0,0,0,0,0,0,0,0,0,0,0,0,0,0,0,0,0,0,0,0,0,0,0,0,0,0,0,0,0,0,0,0,0,0,0,0,0,0,0,0,0,0.0274,0.0274,0,0.0279,0.0279,0.0279,0.0254,0.0253,0.0252,0.0252,0.0232,0.0232,0.0232,0,0,0,0,0,0,0,0,0,0,0,0,0,0.0231,0.0231,0.0274,0.0274,0.0274,0.0279,0.0279,0.0279,0.0254,0.0253,0.0252,0.0252,0.0232,0.0232,0.0232,0,0,0,0,0,0,0,0,0,0,0,0,0,0.0243,0.0232,0.0274,0.0263,0.0262,0.0279,0.0279,0.0279,0.0254,0.0253,0.0252,0.0251,0.0232,0.0232,0.0232,0.0253,0,0,0.0232,0.0233,0,0,0,0,0,0,0,0,0.0243,0.0245,0.0264,0.0264,0.0263,0.0265,0.0256,0.0269,0.0254,0.0257,0.0252,0.0251,0.0242,0.0241,0.0244,0.0252,0.0251,0.0232,0.0233,0.0233,0.0233,0,0,0,0,0,0,0,0.0242,0.0244,0.0275,0.0265,0.0264,0.0253,0.0254,0.0259,0.0254,0.0256,0.0255,0.0256,0.0241,0.0244,0.0243,0.0251,0.0232,0.0233,0.0233,0.0233,0.0283,0.0285,0,0,0,0,0,0,0.0244,0.0244,0.0275,0.0276,0.0251,0.0255,0.0256,0.0265,0.0254,0.0252,0.0257,0.0255,0.0244,0.0243,0.0242,0.0302,0.0233,0.0233,0.0233,0.0282,0.0284,0.0285,0,0,0,0,0,0,0.0244,0.0248,0.0275,0.026,0.0262,0.0257,0.0267,0.0266,0.027,0.0255,0.0252,0.0264,0.0243,0.0242,0.0253,0.0299,0.0233,0.0233,0.0281,0.0283,0.0284,0.0398,0,0,0,0,0,0,0.0243,0.0247,0.0257,0.026,0.0263,0.0297,0.0268,0.0266,0.0273,0.0271,0.026,0.0257,0.0242,0.0253,0.0253,0.0298,0.0233,0.0279,0.0282,0.0284,0.0393,0.0404,0.0413,0,0,0,0,0,0.0241,0.0268,0.0258,0.0261,0.0277,0.0298,0.03,0.0291,0.0275,0.0289,0.0277,0.0258,0.0268,0.0254,0.0254,0.03,0.0278,0.0281,0.0284,0.0388,0.0402,0.0413,0,0,0,0,0,0,0.026,0.0268,0.0257,0.0285,0.0292,0.0294,0.0311,0.0298,0.0301,0.03,0.0274,0.0271,0.0298,0.0279,0.0264,0.0319,0.027,0.0273,0.035,0.0362,0.0372,0.0415,0.0233,0,0,0,0,0,0.0267,0.0289,0.0289,0.0314,0.032,0.0314,0.0321,0.0317,0.0318,0.0318,0.0308,0.0302,0.0311,0.0318,0.0317,0.035,0.0325,0.0378,0.0388,0.0397,0.043,0.0439,0.0454,0.0294,0.0294,0.0294,0,0,0.0281,0.029,0.0302,0.0319,0.0325,0.0358,0.0317,0.0341,0.0376,0.0317,0.0359,0.0336,0.0325,0.0362,0.0373,0.0353,0.0419,0.04,0.0408,0.0437,0.0444,0.046,0.0474,0.0296,0.0296,0.0296,0,0,0.0334,0.0331,0.0367,0.0379,0.0394,0.0396,0.0405,0.041,0.042,0.0449,0.042,0.0428,0.0433,0.0445,0.045,0.0515,0.0468,0.0505,0.0602,0.0611,0.0625,0.0637,0.0585,0.0591,0.0516,0.0517,0.0517,0,0.0348,0.0398,0.0382,0.0422,0.0449,0.0419,0.0472,0.0483,0.0491,0.0523,0.0477,0.0513,0.0485,0.0558,0.0571,0.0545,0.0516,0.0559,0.0627,0.0638,0.0649,0.0593,0.0599,0.0522,0.0522,0.0521,0.0521,0,0.0428,0.0467,0.0495,0.0537,0.0559,0.0603,0.0613,0.0642,0.064,0.0651,0.0707,0.067,0.0698,0.0682,0.0646,0.0718,0.0659,0.0634,0.0602,0.0672,0.0607,0.0611,0.0531,0.0529,0.0527,0.0526,0,0,0.047,0.0538,0.055,0.0599,0.0629,0.0667,0.0731,0.0797,0.0871,0.0852,0.0945,0.093,0.0904,0.0907,0.0862,0.086,0.0874,0.0784,0.0782,0.0742,0.0851,0.0776,0.0771,0.0862,0.0865,0.0866,0.0761,0,0.0543,0.0651,0.0662,0.0773,0.0832,0.0839,0.0913,0.0963,0.0995,0.107,0.1046,0.1101,0.0994,0.1013,0.0998,0.0932,0.0897,0.0902,0.0781,0.0777,0.0711,0.078,0.0759,0.0663,0.0765,0.0765,0.0766,0,0.0622,0.069,0.0807,0.0921,0.0949,0.1004,0.1134,0.1199,0.1282,0.1311,0.1348,0.132,0.1338,0.1219,0.1142,0.115,0.1009,0.0924,0.0917,0.0823,0.0713,0.0616,0.0666,0.0517,0.0771,0.0771,0.0771,0,0.0683,0.0798,0.0903,0.0937,0.1047,0.1114,0.118,0.1275,0.1382,0.147,0.1548,0.1537,0.1564,0.1423,0.1236,0.1196,0.1121,0.1042,0.0826,0.0815,0.0766,0.0748,0.0676,0.0959,0.096,0.096,0.096,0,0.0766,0.0857,0.0942,0.1005,0.1151,0.1195,0.1363,0.1431,0.1569,0.1727,0.1678,0.1789,0.1622,0.155,0.1323,0.111,0.1185,0.0866,0.081,0.0796,0.0784,0.0624,0.0503,0.0956,0.0957,0.0958,0.0958,0,0.0832,0.0881,0.1019,0.1144,0.1184,0.1297,0.1477,0.1621,0.1717,0.1922,0.1964,0.2012,0.1924,0.1699,0.1487,0.1249,0.0904,0.0905,0.0871,0.0814,0.046,0.0345,0.0165,0.0083,0.0661,0.0659,0.0657,0,0.0882,0.0954,0.111,0.1203,0.1266,0.142,0.1549,0.1684,0.1854,0.2065,0.2193,0.2175,0.2194,0.1846,0.1432,0.103,0.0838,0.0724,0.0646,0.0466,0.0297,0.0214,0.0154,0.0593,0.0591,0.0589,0.0588,0,0.0993,0.1043,0.1163,0.1333,0.1474,0.1643,0.1833,0.1981,0.2174,0.2338,0.2541,0.2566,0.2241,0.1879,0.1332,0.1034,0.0602,0.0672,0.0528,0.0285,0.0152,0.0039,0.0588,0.0572,0.0574,0.0575,0.0576,0.0576,0.1083,0.1184,0.133,0.1495,0.1663,0.1868,0.2021,0.2234,0.2486,0.2733,0.2758,0.2786,0.2273,0.1542,0.1155,0.0458,0.0439,0.0234,0.0116,0.0055,-0.0027,0.046,0.0361,0.0361,0.0362,0.0362,0.0362,0,0.1183,0.1302,0.148,0.1694,0.1897,0.195,0.2226,0.2389,0.2666,0.2829,0.2963,0.269,0.2044,0.1395,0.0461,0.0005,-0.0145,-0.0225,-0.0319,-0.0349,0.0131,0.0129,-0.0072,-0.0072,-0.0071,-0.0071,-0.0071,-0.0071,0.1249,0.1423,0.1512,0.1849,0.201,0.2259,0.241,0.2626,0.2774,0.2939,0.2917,0.2889,0.2425,0.0829,-0.0203,-0.0441,-0.0674,-0.0795,-0.0897,-0.0548,-0.0512,-0.0477,-0.05,-0.083,-0.0831,-0.1297,-0.1302,-0.1306]}],[{"header":{"parameterUnit":"m.s-1","parameterCategory":2,"la1":30.2991,"la2":30.254,"lo1":-89.0895,"lo2":-89.0444,"dy":0.0017,"dx":0.0017,"nx":28,"ny":28,"refTime":"2024-07-04T09:00:00:Z","depth":"2","parameterNumber":2,"parameterNumberName":"U-component_of_CURRENTS"},"data":[0,0,0,0,0,0,0,0,0,0,0,0,0,0,0,0,0,0,0,0,0,0,0,0,0,0,0,0,0,0,0,0,0,0,0,0,0,0,0,0,0,0,0,0,0,0,0,0,0,0,0,0,0,0,0,0,0,0,0.353,0.3531,0,0.3586,0.3586,0.3586,0.3576,0.3576,0.3575,0.3575,0.3687,0.3691,0.3694,0,0,0,0,0,0,0,0,0,0,0,0,0,0.3438,0.3439,0.353,0.3531,0.3532,0.3586,0.3586,0.3586,0.3576,0.3576,0.3575,0.3575,0.3686,0.369,0.3694,0,0,0,0,0,0,0,0,0,0,0,0,0,0.3479,0.344,0.353,0.3538,0.354,0.3585,0.3586,0.3586,0.3576,0.3576,0.3575,0.3574,0.3685,0.369,0.3695,0.374,0,0,0.371,0.3713,0,0,0,0,0,0,0,0,0.3476,0.3481,0.3536,0.3538,0.354,0.3578,0.3595,0.3642,0.3576,0.3556,0.3575,0.3574,0.366,0.3667,0.367,0.3746,0.375,0.3711,0.3714,0.3716,0.3718,0,0,0,0,0,0,0,0.3474,0.3479,0.3546,0.3537,0.354,0.3547,0.3551,0.3603,0.3608,0.3558,0.3559,0.3574,0.3661,0.3665,0.3673,0.3752,0.3711,0.3715,0.3719,0.3721,0.3892,0.3893,0,0,0,0,0,0,0.3478,0.3477,0.3545,0.3548,0.3512,0.355,0.3554,0.3562,0.3606,0.3614,0.3575,0.3574,0.3657,0.3667,0.3677,0.3823,0.3716,0.3721,0.3724,0.389,0.3892,0.3893,0,0,0,0,0,0,0.3476,0.3483,0.3542,0.3519,0.3527,0.3553,0.3561,0.3563,0.36,0.362,0.3627,0.3613,0.3657,0.367,0.3745,0.3824,0.3723,0.3728,0.3888,0.3891,0.3893,0.4059,0,0,0,0,0,0,0.3473,0.3482,0.3494,0.3519,0.3529,0.3592,0.3562,0.3565,0.3611,0.3611,0.3655,0.3662,0.3657,0.3737,0.375,0.3829,0.3732,0.3887,0.3889,0.3892,0.4051,0.4066,0.4079,0,0,0,0,0,0.3469,0.3493,0.3494,0.3503,0.3543,0.3594,0.3601,0.3612,0.3614,0.364,0.3666,0.3662,0.3763,0.3744,0.3758,0.3841,0.3885,0.3889,0.3892,0.4045,0.4063,0.4079,0,0,0,0,0,0,0.3465,0.3496,0.3497,0.353,0.3569,0.3595,0.3626,0.364,0.3679,0.3688,0.3697,0.3708,0.3808,0.3787,0.3766,0.3888,0.3818,0.3824,0.393,0.3947,0.3961,0.3965,0.3736,0,0,0,0,0,0.347,0.3495,0.3528,0.3561,0.3583,0.3613,0.3639,0.3654,0.3691,0.3708,0.3733,0.3763,0.3828,0.3857,0.3894,0.3971,0.3977,0.4021,0.4035,0.4048,0.4056,0.4145,0.417,0.3904,0.3904,0.3904,0,0,0.3478,0.3503,0.3516,0.3563,0.3592,0.3652,0.3626,0.3685,0.3735,0.3719,0.3793,0.3831,0.386,0.3946,0.3986,0.3943,0.4126,0.4052,0.4063,0.4064,0.4152,0.4178,0.4202,0.3906,0.3906,0.3906,0,0,0.3513,0.3533,0.3563,0.36,0.3658,0.3699,0.3729,0.3773,0.3788,0.3866,0.3878,0.3969,0.4019,0.4078,0.4112,0.4225,0.4208,0.4214,0.4291,0.4379,0.4403,0.4424,0.4472,0.4496,0.4209,0.4209,0.4209,0,0.3522,0.3565,0.3585,0.3629,0.3673,0.3732,0.3789,0.3833,0.3893,0.3922,0.3904,0.4058,0.4097,0.4245,0.4269,0.4271,0.4277,0.4238,0.4403,0.4424,0.4443,0.4487,0.4511,0.4217,0.4216,0.4216,0.4215,0,0.3573,0.3616,0.3649,0.3729,0.3779,0.3848,0.391,0.3972,0.4015,0.4049,0.418,0.4243,0.4338,0.4365,0.4355,0.451,0.4459,0.4429,0.4374,0.4481,0.4519,0.4541,0.4229,0.4226,0.4224,0.4222,0,0,0.3567,0.3665,0.3673,0.3718,0.3835,0.3882,0.3993,0.4098,0.4181,0.4249,0.436,0.4487,0.4525,0.4563,0.4594,0.4652,0.4807,0.4582,0.4583,0.4651,0.4965,0.4724,0.4724,0.4795,0.4799,0.4803,0.4942,0,0.3607,0.3684,0.3738,0.3854,0.3906,0.3997,0.4107,0.4204,0.4278,0.4399,0.4498,0.4624,0.4601,0.4677,0.4749,0.4814,0.487,0.477,0.483,0.4832,0.4624,0.4744,0.4396,0.4471,0.4963,0.4967,0.497,0,0.3632,0.3682,0.378,0.3909,0.3945,0.4056,0.4227,0.4347,0.4522,0.4544,0.4687,0.4757,0.4943,0.4872,0.5059,0.4986,0.4983,0.4994,0.4999,0.4728,0.4632,0.4439,0.4492,0.5007,0.5004,0.5001,0.4998,0,0.3596,0.371,0.3795,0.3836,0.4008,0.4097,0.4247,0.4413,0.4491,0.4693,0.4755,0.4947,0.5076,0.5145,0.5179,0.5137,0.531,0.5273,0.505,0.5032,0.4724,0.4669,0.5363,0.5363,0.5363,0.5362,0.5362,0,0.3614,0.3656,0.3799,0.3851,0.3976,0.4128,0.4329,0.4423,0.4618,0.4731,0.4883,0.4961,0.5138,0.5243,0.5249,0.522,0.5391,0.5086,0.5064,0.4764,0.4714,0.5153,0.5127,0.5367,0.5366,0.5365,0.5364,0,0.3543,0.3633,0.3722,0.3908,0.3971,0.4087,0.4344,0.4481,0.4655,0.4815,0.4884,0.5025,0.5148,0.526,0.5372,0.5291,0.5301,0.5218,0.4827,0.4753,0.4951,0.4931,0.5045,0.5038,0.5032,0.5027,0.5022,0,0.3533,0.3586,0.3739,0.3789,0.3884,0.4092,0.4248,0.4463,0.4568,0.4809,0.4846,0.5018,0.5027,0.5113,0.5058,0.5049,0.5148,0.465,0.4501,0.4957,0.4926,0.4916,0.4905,0.4184,0.4173,0.4164,0.4157,0,0.3508,0.3559,0.3599,0.3743,0.3885,0.4007,0.4225,0.4274,0.4554,0.4613,0.4671,0.4714,0.4808,0.4601,0.4571,0.4508,0.4638,0.446,0.5108,0.4274,0.4144,0.4112,0.4132,0.4079,0.4087,0.4093,0.4097,0.41,0.3472,0.3474,0.358,0.3623,0.3763,0.3851,0.3914,0.4093,0.417,0.4207,0.4377,0.4296,0.433,0.407,0.3928,0.3837,0.4144,0.3955,0.3985,0.4024,0.3855,0.3716,0.354,0.3545,0.3549,0.3552,0.3555,0,0.3427,0.3397,0.3471,0.349,0.3549,0.3735,0.3811,0.3792,0.3769,0.3879,0.3864,0.3522,0.3353,0.3388,0.3134,0.3087,0.3097,0.2939,0.295,0.303,0.3101,0.2887,0.2315,0.2311,0.2307,0.2303,0,0,0.3414,0.3374,0.3329,0.3248,0.3333,0.3372,0.3395,0.3281,0.3253,0.313,0.306,0.3258,0.3325,0.2812,0.2724,0.2475,0.2736,0.2371,0.3379,0.3479,0.3544,0.371,0.3472,0,0,0,0,0]},{"header":{"parameterUnit":"m.s-1","parameterCategory":2,"la1":30.2991,"la2":30.254,"lo1":-89.0895,"lo2":-89.0444,"dy":0.0017,"dx":0.0017,"nx":28,"ny":28,"refTime":"2024-07-04T09:00:00:Z","depth":"2","parameterNumber":3,"parameterNumberName":"V-component_of_CURRENTS"},"data":[0,0,0,0,0,0,0,0,0,0,0,0,0,0,0,0,0,0,0,0,0,0,0,0,0,0,0,0,0,0,0,0,0,0,0,0,0,0,0,0,0,0,0,0,0,0,0,0,0,0,0,0,0,0,0,0,0,0,0.0128,0.0128,0,0.0118,0.0118,0.0118,0.0094,0.0094,0.0094,0.0093,0.0075,0.0075,0.0075,0,0,0,0,0,0,0,0,0,0,0,0,0,0.0095,0.0096,0.0128,0.0128,0.0128,0.0118,0.0118,0.0117,0.0094,0.0094,0.0093,0.0093,0.0075,0.0075,0.0075,0,0,0,0,0,0,0,0,0,0,0,0,0,0.0099,0.0096,0.0128,0.0116,0.0115,0.0118,0.0118,0.0117,0.0095,0.0094,0.0093,0.0093,0.0075,0.0075,0.0075,0.0085,0,0,0.0074,0.0074,0,0,0,0,0,0,0,0,0.0099,0.01,0.0118,0.0117,0.0116,0.0108,0.0099,0.0106,0.0095,0.0101,0.0093,0.0093,0.0086,0.0085,0.0083,0.0084,0.0083,0.0074,0.0074,0.0074,0.0074,0,0,0,0,0,0,0,0.0098,0.01,0.0123,0.0118,0.0117,0.01,0.01,0.01,0.0096,0.0101,0.0099,0.01,0.0085,0.0083,0.0083,0.0083,0.0074,0.0074,0.0074,0.0074,0.0102,0.0103,0,0,0,0,0,0,0.0104,0.01,0.0123,0.0123,0.0107,0.0101,0.0101,0.011,0.0096,0.0094,0.01,0.0099,0.0084,0.0083,0.0082,0.013,0.0074,0.0074,0.0074,0.0102,0.0103,0.0104,0,0,0,0,0,0,0.0104,0.0107,0.0124,0.0111,0.0112,0.0103,0.0113,0.011,0.0114,0.0096,0.0094,0.0108,0.0083,0.0082,0.009,0.0128,0.0074,0.0073,0.0101,0.0102,0.0103,0.0203,0,0,0,0,0,0,0.0103,0.0107,0.0116,0.0112,0.0113,0.0138,0.0113,0.011,0.0116,0.0114,0.0102,0.0099,0.0083,0.0091,0.009,0.0126,0.0073,0.0099,0.0101,0.0103,0.0199,0.0208,0.0215,0,0,0,0,0,0.0102,0.0125,0.0117,0.0119,0.0126,0.0139,0.0139,0.0128,0.0117,0.0128,0.0116,0.01,0.0101,0.0092,0.0091,0.0128,0.0099,0.0101,0.0103,0.0195,0.0206,0.0215,0,0,0,0,0,0,0.0118,0.0125,0.0115,0.0139,0.0142,0.0136,0.0148,0.0137,0.0137,0.0136,0.0112,0.011,0.0128,0.0111,0.0101,0.0138,0.0097,0.0099,0.0167,0.0177,0.0185,0.0208,0.0073,0,0,0,0,0,0.0125,0.0146,0.0142,0.0164,0.0167,0.0157,0.0161,0.0156,0.0154,0.0153,0.0142,0.0134,0.0136,0.0142,0.0134,0.016,0.0127,0.0181,0.0189,0.0196,0.0212,0.0194,0.0202,0.011,0.011,0.011,0,0,0.0137,0.0145,0.0155,0.0169,0.0169,0.0191,0.0159,0.0176,0.0202,0.0152,0.0183,0.016,0.0145,0.0171,0.0179,0.0164,0.0201,0.0199,0.0206,0.0218,0.0197,0.0206,0.0214,0.0111,0.0111,0.0111,0,0,0.0181,0.0179,0.0211,0.0216,0.0226,0.0224,0.0232,0.0231,0.024,0.026,0.0232,0.0235,0.0233,0.0238,0.0239,0.0289,0.024,0.028,0.0354,0.0336,0.0344,0.035,0.0306,0.0307,0.0293,0.0294,0.0294,0,0.0193,0.0235,0.0222,0.0252,0.0266,0.0244,0.0279,0.029,0.0293,0.0318,0.0282,0.0294,0.0272,0.0322,0.0331,0.0313,0.0277,0.0321,0.0349,0.0354,0.0359,0.0312,0.0312,0.0299,0.0298,0.0298,0.0297,0,0.0258,0.0289,0.0311,0.0343,0.0351,0.0383,0.0387,0.0417,0.0415,0.0418,0.0455,0.0419,0.0436,0.0421,0.039,0.0428,0.0381,0.0355,0.0328,0.0375,0.0321,0.032,0.0306,0.0304,0.0303,0.0301,0,0,0.0295,0.0348,0.0356,0.0393,0.0404,0.0429,0.0482,0.0532,0.0601,0.0573,0.0644,0.0618,0.0595,0.0593,0.0556,0.053,0.0518,0.0461,0.0457,0.0424,0.0454,0.038,0.0371,0.0493,0.0494,0.0494,0.0397,0,0.0354,0.0438,0.044,0.052,0.0562,0.0565,0.0632,0.067,0.0692,0.0754,0.0719,0.076,0.0665,0.0685,0.0643,0.0571,0.0521,0.0545,0.0406,0.0402,0.0338,0.037,0.0399,0.0312,0.0395,0.0395,0.0395,0,0.0418,0.047,0.0558,0.0643,0.0664,0.0707,0.0816,0.0877,0.0945,0.0964,0.0977,0.0944,0.0936,0.0831,0.0718,0.0736,0.0599,0.0507,0.0501,0.0401,0.0327,0.028,0.0306,0.0392,0.0393,0.0393,0.0393,0,0.0471,0.0553,0.0636,0.0657,0.0746,0.0806,0.0864,0.0946,0.1044,0.1106,0.117,0.1123,0.1129,0.0976,0.0784,0.0759,0.0621,0.0571,0.0362,0.0354,0.0337,0.0327,0.0453,0.0453,0.0454,0.0454,0.0454,0,0.0541,0.0604,0.0677,0.0728,0.0855,0.0884,0.1045,0.1099,0.1218,0.1358,0.1291,0.1359,0.1161,0.1059,0.0848,0.0614,0.0673,0.0381,0.0334,0.0369,0.0363,0.0402,0.0397,0.045,0.0451,0.0452,0.0452,0,0.0592,0.0634,0.0743,0.0851,0.0888,0.0988,0.1159,0.1301,0.1381,0.1559,0.1592,0.1552,0.142,0.1186,0.0936,0.0716,0.0491,0.0369,0.0406,0.0365,0.0211,0.0213,0.0154,0.0151,0.0148,0.0146,0.0144,0,0.0633,0.0699,0.0831,0.0915,0.0968,0.1119,0.1256,0.1374,0.1528,0.1682,0.178,0.1694,0.1633,0.1229,0.0867,0.0498,0.0436,0.0233,0.0184,0.0226,0.0186,0.0191,0.0197,0.0194,0.0192,0.0191,0.019,0,0.0721,0.0768,0.0856,0.1032,0.117,0.1345,0.153,0.1667,0.1847,0.1956,0.206,0.2007,0.1648,0.1273,0.0755,0.0496,0.0306,0.0194,0.0264,0.0259,0.0253,0.0216,0.0222,0.018,0.0181,0.0182,0.0183,0.0183,0.0788,0.0864,0.0998,0.1163,0.1334,0.1562,0.1717,0.191,0.2118,0.2281,0.2225,0.2124,0.1734,0.1054,0.0637,0.0206,0.0228,0.0042,0.005,0.0058,0.0074,0.0064,-0.0043,-0.0043,-0.0044,-0.0044,-0.0044,0,0.0872,0.0963,0.1128,0.1331,0.1547,0.163,0.1906,0.2042,0.2257,0.235,0.2373,0.1951,0.1522,0.1071,0.0442,0.0046,0.0037,-0.0108,-0.0014,-0.0002,0.0009,0.0026,-0.0107,-0.0108,-0.0109,-0.011,0,0,0.0924,0.1071,0.1156,0.1486,0.1655,0.193,0.2094,0.2229,0.2321,0.2361,0.229,0.217,0.1633,0.1159,0.0648,0.0277,0.0218,0.0184,0.0276,0.0461,0.0476,0.0135,0.0178,0,0,0,0,0]}],[{"header":{"parameterUnit":"m.s-1","parameterCategory":2,"la1":30.2991,"la2":30.254,"lo1":-89.0895,"lo2":-89.0444,"dy":0.0017,"dx":0.0017,"nx":28,"ny":28,"refTime":"2024-07-04T09:00:00:Z","depth":"4","parameterNumber":2,"parameterNumberName":"U-component_of_CURRENTS"},"data":[0,0,0,0,0,0,0,0,0,0,0,0,0,0,0,0,0,0,0,0,0,0,0,0,0,0,0,0,0,0,0,0,0,0,0,0,0,0,0,0,0,0,0,0,0,0,0,0,0,0,0,0,0,0,0,0,0,0,0.2001,0.2002,0,0.204,0.204,0.2041,0.2079,0.208,0.208,0.2081,0.2136,0.2137,0.2138,0,0,0,0,0,0,0,0,0,0,0,0,0,0.1965,0.1965,0.2001,0.2002,0.2002,0.204,0.204,0.2041,0.2079,0.208,0.208,0.2081,0.2136,0.2137,0.2138,0,0,0,0,0,0,0,0,0,0,0,0,0,0.199,0.1965,0.2001,0.2026,0.2028,0.204,0.204,0.2041,0.2079,0.208,0.2081,0.2081,0.2135,0.2137,0.2138,0.2133,0,0,0.2143,0.2144,0,0,0,0,0,0,0,0,0.1988,0.1991,0.2022,0.2024,0.2027,0.2055,0.2048,0.2072,0.2079,0.206,0.2081,0.2082,0.211,0.2113,0.2119,0.2135,0.2138,0.2143,0.2144,0.2145,0.2145,0,0,0,0,0,0,0,0.1987,0.199,0.2017,0.2022,0.2025,0.2036,0.204,0.2053,0.2081,0.2062,0.2065,0.2068,0.2112,0.2118,0.2121,0.2139,0.2143,0.2144,0.2145,0.2146,0.2312,0.2315,0,0,0,0,0,0,0.198,0.1988,0.2015,0.2018,0.2009,0.2036,0.2041,0.2046,0.208,0.2086,0.2068,0.207,0.2115,0.2119,0.2123,0.2232,0.2145,0.2146,0.2147,0.2308,0.2313,0.2316,0,0,0,0,0,0,0.1979,0.1982,0.2014,0.2004,0.2008,0.2036,0.2041,0.2046,0.2097,0.2085,0.2091,0.2118,0.2115,0.2121,0.2169,0.223,0.2147,0.2148,0.2304,0.231,0.2314,0.2377,0,0,0,0,0,0,0.1978,0.1982,0.2009,0.2003,0.2009,0.2044,0.204,0.2046,0.2095,0.21,0.2129,0.2132,0.2116,0.2167,0.2171,0.2231,0.2149,0.23,0.2307,0.2313,0.2371,0.2384,0.2395,0,0,0,0,0,0.1977,0.2003,0.201,0.2015,0.2037,0.2045,0.205,0.2071,0.2097,0.2121,0.2146,0.2134,0.2213,0.217,0.2174,0.2236,0.2297,0.2305,0.2312,0.2365,0.2382,0.2395,0,0,0,0,0,0,0.1999,0.2009,0.2017,0.2046,0.2056,0.2052,0.2087,0.2101,0.2141,0.2162,0.2157,0.2162,0.2237,0.2232,0.2185,0.231,0.2262,0.2271,0.2302,0.2317,0.2329,0.2347,0.2151,0,0,0,0,0,0.2015,0.2045,0.2043,0.2071,0.2082,0.2096,0.2116,0.2126,0.2146,0.2168,0.2183,0.222,0.2266,0.2286,0.2315,0.2365,0.2375,0.2419,0.2431,0.2441,0.2464,0.2542,0.2563,0.2342,0.2342,0.2342,0,0,0.2026,0.2043,0.2057,0.208,0.2096,0.2096,0.2112,0.2149,0.2173,0.2166,0.2224,0.2263,0.2293,0.2355,0.239,0.2359,0.2505,0.2451,0.2459,0.2477,0.2553,0.2574,0.2593,0.2348,0.2347,0.2346,0,0,0.204,0.2085,0.21,0.211,0.214,0.2142,0.2163,0.2181,0.2228,0.2276,0.2298,0.2369,0.2417,0.245,0.2475,0.2577,0.2574,0.2609,0.2674,0.2749,0.2768,0.2784,0.2794,0.281,0.2606,0.2607,0.2607,0,0.2055,0.2065,0.2107,0.2113,0.2111,0.2164,0.2151,0.2211,0.2246,0.231,0.2309,0.245,0.2463,0.2564,0.2606,0.2603,0.2633,0.2604,0.2763,0.278,0.2795,0.2802,0.2819,0.2611,0.261,0.261,0.2609,0,0.2046,0.207,0.2085,0.21,0.2109,0.2123,0.2168,0.224,0.2307,0.2368,0.2512,0.2545,0.2635,0.2661,0.2663,0.2799,0.2779,0.277,0.2715,0.2821,0.2821,0.2838,0.2616,0.2615,0.2614,0.2613,0,0,0.2035,0.2067,0.2077,0.2076,0.21,0.2104,0.2183,0.2268,0.2387,0.2464,0.2578,0.2691,0.2767,0.2803,0.2831,0.2895,0.3009,0.2894,0.2896,0.2884,0.3155,0.2939,0.2936,0.3043,0.3047,0.3051,0.3097,0,0.2013,0.201,0.2026,0.2025,0.2018,0.2084,0.215,0.2256,0.2399,0.2538,0.2654,0.2787,0.2808,0.2878,0.2952,0.3013,0.3066,0.2995,0.3072,0.3073,0.2854,0.2953,0.3064,0.311,0.3114,0.3116,0.3118,0,0.198,0.1991,0.197,0.2,0.2007,0.203,0.2177,0.2247,0.2483,0.2615,0.2793,0.2892,0.3033,0.3014,0.3183,0.315,0.3172,0.3192,0.3194,0.2988,0.2891,0.2995,0.3149,0.3146,0.3144,0.3142,0.314,0,0.1931,0.1946,0.1932,0.1933,0.1984,0.2035,0.2089,0.2299,0.2426,0.2695,0.2836,0.3013,0.3114,0.3204,0.3278,0.3259,0.3414,0.3373,0.3187,0.3169,0.3317,0.3299,0.3476,0.3476,0.3476,0.3476,0.3476,0,0.1864,0.1861,0.1935,0.1932,0.1965,0.2016,0.2131,0.2282,0.2509,0.2673,0.2888,0.3026,0.3184,0.3287,0.3317,0.3308,0.3455,0.3218,0.3186,0.3337,0.3322,0.3326,0.3308,0.3477,0.3477,0.3477,0.3476,0,0.176,0.1811,0.1808,0.1895,0.1938,0.196,0.2108,0.222,0.2494,0.2707,0.2795,0.3074,0.3221,0.3325,0.344,0.334,0.3351,0.33,0.3439,0.3411,0.3035,0.302,0.3088,0.3081,0.3075,0.307,0.3066,0,0.1684,0.1689,0.1775,0.1787,0.1824,0.1892,0.1952,0.219,0.2338,0.2715,0.2802,0.3038,0.3184,0.3184,0.3285,0.3299,0.3263,0.3209,0.3138,0.3042,0.3006,0.3,0.2993,0.3057,0.3056,0.3054,0.3053,0,0.155,0.1612,0.1612,0.1663,0.1714,0.1751,0.1891,0.1992,0.2286,0.2546,0.2777,0.2868,0.2999,0.3063,0.3093,0.3098,0.3215,0.3148,0.3159,0.3092,0.3006,0.2974,0.2974,0.3033,0.3036,0.3037,0.3039,0,0.1468,0.1422,0.1479,0.1498,0.1561,0.1621,0.1687,0.1858,0.2029,0.2491,0.2525,0.2785,0.2981,0.2958,0.2992,0.2978,0.2925,0.2797,0.2826,0.2849,0.2745,0.2599,0.2492,0,0,0,0,0,0.1374,0.1327,0.1319,0.134,0.1404,0.1479,0.1661,0.1762,0.2064,0.2176,0.2378,0.2508,0.2607,0.271,0.2647,0.2826,0.2891,0.273,0.2748,0.2922,0.2945,0.2843,0,0,0,0,0,0,0.1317,0.1291,0.1265,0.1241,0.1252,0.1329,0.1446,0.1638,0.1735,0.2049,0.2124,0.2339,0.2466,0.2643,0.2606,0.2628,0.2577,0.2877,0.2869,0.2909,0.293,0.2949,0.2852,0,0,0,0,0]},{"header":{"parameterUnit":"m.s-1","parameterCategory":2,"la1":30.2991,"la2":30.254,"lo1":-89.0895,"lo2":-89.0444,"dy":0.0017,"dx":0.0017,"nx":28,"ny":28,"refTime":"2024-07-04T09:00:00:Z","depth":"4","parameterNumber":3,"parameterNumberName":"V-component_of_CURRENTS"},"data":[0,0,0,0,0,0,0,0,0,0,0,0,0,0,0,0,0,0,0,0,0,0,0,0,0,0,0,0,0,0,0,0,0,0,0,0,0,0,0,0,0,0,0,0,0,0,0,0,0,0,0,0,0,0,0,0,0,0,0.0081,0.0081,0,0.0077,0.0077,0.0077,0.0069,0.0069,0.0069,0.0069,0.0054,0.0054,0.0053,0,0,0,0,0,0,0,0,0,0,0,0,0,0.0053,0.0054,0.0081,0.0081,0.0081,0.0077,0.0077,0.0077,0.0069,0.0069,0.0069,0.0069,0.0054,0.0054,0.0053,0,0,0,0,0,0,0,0,0,0,0,0,0,0.0059,0.0054,0.0081,0.0076,0.0076,0.0077,0.0077,0.0077,0.0069,0.0069,0.0069,0.0069,0.0054,0.0054,0.0053,0.0056,0,0,0.0052,0.0052,0,0,0,0,0,0,0,0,0.0059,0.006,0.0077,0.0077,0.0076,0.0073,0.0062,0.0069,0.0069,0.0072,0.0069,0.0069,0.0059,0.0059,0.0059,0.0055,0.0054,0.0052,0.0052,0.0052,0.0052,0,0,0,0,0,0,0,0.0058,0.006,0.0079,0.0077,0.0076,0.0065,0.0066,0.0063,0.0067,0.0072,0.0071,0.0071,0.0059,0.0059,0.0058,0.0054,0.0052,0.0052,0.0052,0.0051,0.0053,0.0053,0,0,0,0,0,0,0.0061,0.006,0.0079,0.0079,0.0067,0.0066,0.0066,0.0074,0.0067,0.0066,0.0071,0.007,0.006,0.0059,0.0058,0.0079,0.0052,0.0051,0.0051,0.0053,0.0053,0.0054,0,0,0,0,0,0,0.006,0.0063,0.008,0.0069,0.007,0.0067,0.0075,0.0075,0.0079,0.0067,0.0065,0.0076,0.006,0.0058,0.0061,0.0078,0.0051,0.0051,0.0053,0.0053,0.0053,0.0109,0,0,0,0,0,0,0.006,0.0063,0.007,0.0069,0.0071,0.0088,0.0076,0.0075,0.0078,0.0078,0.0071,0.0069,0.0059,0.0062,0.0061,0.0077,0.0051,0.0052,0.0053,0.0053,0.0107,0.0112,0.0115,0,0,0,0,0,0.0059,0.0075,0.0071,0.0073,0.0081,0.0088,0.0089,0.0084,0.0079,0.0086,0.008,0.0069,0.0064,0.0062,0.0061,0.0077,0.0052,0.0053,0.0053,0.0105,0.0111,0.0115,0,0,0,0,0,0,0.0068,0.0075,0.0071,0.0088,0.009,0.0087,0.0095,0.0089,0.009,0.0092,0.0076,0.0074,0.0079,0.0069,0.0067,0.0076,0.0055,0.0056,0.0095,0.01,0.0104,0.0111,0.005,0,0,0,0,0,0.0072,0.0088,0.0087,0.0102,0.0104,0.0099,0.0101,0.0101,0.01,0.01,0.0093,0.0085,0.008,0.0083,0.0074,0.0086,0.005,0.0093,0.0097,0.0101,0.0104,0.0059,0.0059,0.0056,0.0056,0.0056,0,0,0.0079,0.0087,0.0094,0.0105,0.0106,0.0119,0.0101,0.0113,0.013,0.0099,0.0118,0.0098,0.0084,0.0093,0.0095,0.009,0.0081,0.0101,0.0105,0.0106,0.006,0.006,0.006,0.0056,0.0056,0.0056,0,0,0.0106,0.0108,0.013,0.0136,0.0144,0.0139,0.0144,0.0145,0.0153,0.0165,0.0143,0.013,0.0133,0.012,0.0116,0.0136,0.0099,0.0138,0.0174,0.0131,0.0131,0.013,0.0079,0.0073,0.0147,0.0147,0.0147,0,0.0112,0.0145,0.0137,0.0161,0.0173,0.0151,0.0177,0.0181,0.0183,0.0198,0.018,0.0162,0.0144,0.0149,0.0156,0.0146,0.0114,0.016,0.0136,0.0135,0.0134,0.0081,0.0074,0.015,0.015,0.0149,0.0149,0,0.0157,0.0183,0.0198,0.022,0.0227,0.0249,0.0248,0.0261,0.0258,0.0259,0.0262,0.0223,0.0215,0.0203,0.019,0.0178,0.0156,0.0141,0.0126,0.0138,0.0081,0.0073,0.0154,0.0153,0.0152,0.0151,0,0,0.0176,0.0221,0.0228,0.026,0.0266,0.0284,0.0308,0.0331,0.0367,0.0337,0.0354,0.0327,0.0298,0.0289,0.0254,0.0214,0.0169,0.0184,0.018,0.0136,0.0068,0.0071,0.0062,0.0155,0.0154,0.0154,0.0031,0,0.0217,0.0285,0.0288,0.0347,0.0382,0.0375,0.0406,0.0421,0.043,0.0437,0.0379,0.0383,0.0336,0.0332,0.028,0.0199,0.0152,0.0203,0.0061,0.0056,0.006,0.0055,0.0151,0.0025,0.0023,0.0021,0.002,0,0.0262,0.0307,0.0376,0.0439,0.0452,0.0481,0.0536,0.0565,0.0565,0.0567,0.0537,0.0488,0.0423,0.0373,0.0233,0.0271,0.0179,0.0102,0.0095,0.0075,0.0045,0.001,0.0005,0.0006,0.0007,0.0008,0.0009,0,0.0303,0.0371,0.0436,0.0455,0.0511,0.0552,0.0585,0.0615,0.0669,0.0651,0.0665,0.0569,0.0523,0.0393,0.024,0.024,0.0065,0.0044,-0.0048,-0.005,-0.0041,-0.0039,-0.0062,-0.0062,-0.0062,-0.0061,-0.0061,0,0.0353,0.0409,0.0471,0.0513,0.0603,0.062,0.0716,0.074,0.0774,0.083,0.0743,0.073,0.0528,0.0406,0.0255,0.0082,0.0078,-0.0046,-0.0078,-0.0015,-0.0009,-0.0047,-0.0044,-0.0066,-0.0065,-0.0064,-0.0063,0,0.0393,0.0429,0.0515,0.0595,0.0631,0.0702,0.0814,0.0884,0.0909,0.0965,0.0961,0.0849,0.0691,0.0487,0.0254,0.0121,-0.0056,-0.0117,-0.0039,-0.0064,-0.0152,-0.0144,-0.0237,-0.0238,-0.0238,-0.0239,-0.024,0,0.0418,0.0467,0.0582,0.0644,0.0691,0.0798,0.0878,0.0946,0.102,0.1039,0.1057,0.0926,0.0821,0.0497,0.0266,-0.003,-0.007,-0.0175,-0.0166,-0.0147,-0.0169,-0.016,-0.0152,-0.0241,-0.0241,-0.0241,-0.0241,0,0.0463,0.0504,0.0578,0.071,0.0809,0.093,0.1047,0.1099,0.1166,0.1185,0.1148,0.0979,0.0784,0.0507,0.0278,0.0064,-0.0116,-0.0184,-0.0184,-0.0176,-0.0153,-0.0172,-0.0163,-0.0244,-0.0243,-0.0243,-0.0243,0,0.0493,0.0545,0.0643,0.0766,0.089,0.1018,0.1079,0.1155,0.1224,0.1239,0.1209,0.101,0.0883,0.0555,0.0343,0.0134,0.0074,-0.0007,-0.0017,-0.0017,0.0081,0.0146,0.0119,0,0,0,0,0,0.0512,0.0577,0.069,0.0823,0.0953,0.1043,0.117,0.1217,0.126,0.1256,0.1249,0.1077,0.0758,0.0605,0.04,0.0305,0.0019,0.0052,-0.0084,-0.0258,-0.0255,-0.0176,0,0,0,0,0,0,0.0523,0.0619,0.0685,0.0855,0.0956,0.1114,0.1199,0.124,0.1239,0.1239,0.1076,0.1015,0.0703,0.0886,0.0394,0.0328,0.0208,-0.0089,-0.0094,-0.0259,-0.0257,-0.0254,-0.0172,0,0,0,0,0]}]]